Regional Weather Roundup
Issued by NWS

Home | Current Version | Previous Version | Text Only | Print | Product List | Glossary Off
Versions: 1 2 3 4 5 6 7 8 9 10 11 12 13 14 15 16 17 18 19 20 21 22 23 24 25 26 27 28 29 30 31 32 33 34 35 36 37 38 39 40 41 42 43 44 45 46 47 48 49 50

000
ASUS43 KIND 240709
RWRIN

WEATHER ROUNDUP FOR INDIANA
NATIONAL WEATHER SERVICE INDIANAPOLIS IN
300 AM EDT SAT JUN 24 2017

NOTE: "FAIR" INDICATES FEW OR NO CLOUDS BELOW 12,000 FEET WITH NO
SIGNIFICANT WEATHER AND/OR OBSTRUCTIONS TO VISIBILITY.

* - STATION DOES NOT REPORT WEATHER SUCH AS PRECIPITATION OR FOG.

+ - STATION NOT QUALITY CONTROLLED BY THE NATIONAL WEATHER SERVICE.
    USE DATA WITH CAUTION...ESPECIALLY DEWPOINT AND RELATIVE
    HUMIDITY OBSERVATIONS.

INZ001>003-010>013-019-020-240800-
NORTHWEST INDIANA

CITY           SKY/WX    TMP DP  RH WIND       PRES   REMARKS
GARY /AIRPORT/ PTCLDY    67  52  58 W10       29.87S
KNOX *+        CLEAR     63  50  63 W3        29.85S
LA PORTE +     PTCLDY    64  55  71 NW7       29.86S
MICHIGAN CITY+ CLEAR     64  55  72 W7        29.86R
MONTICELLO +   CLEAR     63  58  82 W8        29.87R
VALPARAISO     PTCLDY    67  55  65 NW7       29.86S

$$

LMZ046-743>745-240800-
SOUTHERN LAKE MICHIGAN

STATION/POSITION TIME  TEMP    WIND        PRES    WAVE
                       AIR SEA DIR/SP/G            HT
                 (UTC) (F)     (DEG/KT/KT) (MB)    (FT)
BURNS HARBOR     0702   67     290/ 12/ 16 1011.5
MICHIGAN CITY    0640   67     280/ 18/ 20   N/A
5NW MICH CITY    0700   68 68  300/ 16/ 19   N/A     3

$$

INZ004-005-014>016-021>024-240800-
NORTH CENTRAL INDIANA

CITY           SKY/WX    TMP DP  RH WIND       PRES   REMARKS
GOSHEN         MOCLDY    66  53  63 NW12      29.82S
LOGANSPORT +   CLEAR     63  55  77 W8        29.87R
PERU/GRISSOM   CLOUDY    64  60  84 W10       29.84S
ROCHESTER +    PTCLDY    66  59  77 W6        29.85S
SOUTH BEND     PTCLDY    63  56  78 NW7       29.84S
WARSAW +       PTCLDY    63  55  77 NW8       29.84R

$$

INZ006>009-017-018-025>027-240800-
NORTHEAST INDIANA

CITY           SKY/WX    TMP DP  RH WIND       PRES   REMARKS
AUBURN +       PTCLDY    61  54  77 CALM      29.81F
FORT WAYNE     PTCLDY    63  55  75 SW9       29.81F
HUNTINGTON +   PTCLDY    62  58  85 W6        29.82S
KENDALLVILLE + CLEAR    N/A N/A N/A W5        29.82S

$$

INZ028-029-035-036-043>045-051>053-240800-
WEST CENTRAL INDIANA

CITY           SKY/WX    TMP DP  RH WIND       PRES   REMARKS
CRAWFORDSVL +  CLOUDY    61  58  91 W8        29.91R
GREENCASTLE +  PTCLDY    63  55  77 CALM      29.91S
LAFAYETTE      CLOUDY    61  57  87 W7        29.88R
TERRE HAUTE    PTCLDY    66  57  72 NW7       29.92R

$$

INZ030>032-037>040-046>048-054>057-064-065-240800-
CENTRAL INDIANA

CITY           SKY/WX    TMP DP  RH WIND       PRES   REMARKS
CP ATTERBURY + CLEAR     61  61 100 W6        29.90S
FRANKFORT +    PTCLDY    65  60  82 W7        29.90R
GREENWOOD *+   PTCLDY    64  61  89 W5        29.90S
INDIANAPOLIS   PTCLDY    63  60  90 W8        29.89R
-EAGLE CREEK   PTCLDY    66  59  78 W10       29.88S
KOKOMO +       MOCLDY    64  59  83 W10       29.87R
MARION +       CLEAR     63  57  82 W8        29.86R
MT COMFORT *+  PTCLDY    63  61  94 W6        29.88S
SHELBYVILLE    CLEAR     65  60  84 W7        29.88R
ZIONSVILLE +   PTCLDY    64  58  82 W7        29.89S

$$

INZ033-034-041-042-049-050-058-059-240800-
EAST CENTRAL INDIANA

CITY           SKY/WX    TMP DP  RH WIND       PRES   REMARKS
MUNCIE         CLEAR     65  59  81 W7        29.85S
RICHMOND +     CLEAR     59  59 100 SW5       29.87F

$$

INZ060-061-067>069-081>083-085>088-240800-
SOUTHWEST INDIANA

CITY           SKY/WX    TMP DP  RH WIND       PRES   REMARKS
EVANSVILLE     PTCLDY    66  63  90 NW7       29.93R
HUNTINGBURG *+ CLEAR     64  63  94 NW7       29.93R FOG
WASHINGTON +   MOCLDY    65  63  93 NW6       29.92R

$$

INZ062-063-066-070>080-084-089>092-240800-
SOUTH CENTRAL AND SOUTHEAST INDIANA

CITY           SKY/WX    TMP DP  RH WIND       PRES   REMARKS
BEDFORD +      PTCLDY    64  63  94 W3        29.91R
BLOOMINGTON    CLEAR     65  61  87 W5        29.91S
MADISON *+       N/A     64  64 100 CALM      29.91S VSB<1/4
NORTH VERNON + CLEAR     63  63 100 S3        29.89S
SEYMOUR +      CLEAR     64  64 100 S5        29.89S

$$




USA.gov is the U.S. government's official web portal to all federal, state and local government web resources and services.